Shi Jian 11-06

operational
NORAD ID: 39624 Int'l Des: 2014-014 Owner: CNSA Country: CN
LEOCIRCULARRETROGRADESSO

Shi Jian 11-06について

説明を読み込み中...

リアルタイム位置

3D地球を読み込み中...

次回通過

高度履歴

Altitude vs Time

uPlot chart will show altitude changes over time

軌道要素

1 39624U 14014A 26063.64478672 .00000756 00000-0 16048-3 0 9995
2 39624 97.9605 94.3390 0012881 319.4256 40.5985 14.61770021635420
Epoch: Mar 4, 2026 • Age: 21 hours

現在のステータス

高度 700.8 km
速度 7.51 km/s
衛星直下点 63.40°N, 34.65°W
打ち上げ日 Mar 31, 2014
運用期間 11.9 years
タイプ other

技術仕様

分類 Payload
質量 300.00 kg
乾燥質量 300.00 kg
総質量 300.00 kg
長さ 1.00 m
直径 1.00 m
スパン 3.00 m
形状 Box + 2 Pan
製造者 DFHZ
バスタイプ CAST-2000
フェーズステータス In Orbit
所有者/国 CNSA/CN

大規模コンステレーション

Loading constellations...